| time (UTC) | temp F | wind direction | speed MPH | gust MPH | rain 1hr in | rain 24hr in | rain mn in | humidity % | barometer mb |
| 20260508065501 | 45 | 217 | 2.0 | 3.0 | 0.00 | 0.00 | 0.00 | 83 | 1015.8 |
| 20260508065004 | 46 | 217 | 2.0 | 3.0 | 0.00 | 0.00 | 0.00 | 82 | 1016.0 |
| 20260508064506 | 46 | 215 | 2.0 | 3.0 | 0.00 | 0.00 | 0.00 | 82 | 1016.0 |
| 20260508064006 | 46 | 222 | 2.0 | 3.0 | 0.00 | 0.00 | 0.00 | 81 | 1016.0 |
| 20260508063504 | 47 | 211 | 1.0 | 2.0 | 0.00 | 0.00 | 0.00 | 81 | 1016.0 |
| 20260508063022 | 47 | 226 | 2.0 | 2.0 | 0.00 | 0.00 | 0.00 | 81 | 1016.1 |
| 20260508062503 | 47 | 226 | 0.0 | 2.0 | 0.00 | 0.00 | 0.00 | 80 | 1016.2 |
| 20260508062003 | 48 | 226 | 1.0 | 2.0 | 0.00 | 0.00 | 0.00 | 79 | 1016.3 |
| 20260508061516 | 48 | 226 | 2.0 | 2.0 | 0.00 | 0.00 | 0.00 | 78 | 1016.4 |
| 20260508061006 | 48 | 226 | 2.0 | 2.0 | 0.00 | 0.00 | 0.00 | 78 | 1016.4 |
| 20260508060509 | 48 | 226 | 0.0 | 2.0 | 0.00 | 0.00 | 0.00 | 77 | 1016.4 |
| 20260508060021 | 49 | 226 | 1.0 | 2.0 | 0.00 | 0.00 | 0.00 | 77 | 1016.3 |
| 20260508055506 | 48 | 226 | 1.0 | 2.0 | 0.00 | 0.00 | 0.00 | 77 | 1016.3 |
| 20260508055010 | 48 | 226 | 1.0 | 2.0 | 0.00 | 0.00 | 0.00 | 77 | 1016.3 |
| 20260508054503 | 48 | 209 | 1.0 | 2.0 | 0.00 | 0.00 | 0.00 | 77 | 1016.3 |
| 20260508054006 | 48 | 209 | 1.0 | 2.0 | 0.00 | 0.00 | 0.00 | 77 | 1016.4 |
| 20260508053503 | 49 | 209 | 1.0 | 2.0 | 0.00 | 0.00 | 0.00 | 77 | 1016.4 |
| 20260508053011 | 49 | 209 | 0.0 | 2.0 | 0.00 | 0.00 | 0.00 | 77 | 1016.4 |
| 20260508052506 | 49 | 209 | 0.0 | 2.0 | 0.00 | 0.00 | 0.00 | 76 | 1016.4 |
| 20260508052004 | 49 | 209 | 0.0 | 2.0 | 0.00 | 0.00 | 0.00 | 76 | 1016.4 |
| 20260508051514 | 49 | 209 | 0.0 | 2.0 | 0.00 | 0.00 | 0.00 | 77 | 1016.4 |
| 20260508051005 | 49 | 184 | 0.0 | 2.0 | 0.00 | 0.00 | 0.00 | 77 | 1016.4 |
| 20260508050504 | 49 | 184 | 0.0 | 3.0 | 0.00 | 0.00 | 0.00 | 77 | 1016.4 |
| 20260508050016 | 49 | 236 | 1.0 | 3.0 | 0.00 | 0.00 | 0.00 | 77 | 1016.4 |
| 20260508045510 | 48 | 211 | 1.0 | 3.0 | 0.00 | 0.00 | 0.00 | 77 | 1016.4 |
| 20260508045009 | 48 | 182 | 0.0 | 2.0 | 0.00 | 0.00 | 0.00 | 78 | 1016.4 |
| 20260508044522 | 48 | 182 | 0.0 | 3.0 | 0.00 | 0.00 | 0.00 | 78 | 1016.4 |
| 20260508044007 | 48 | 180 | 1.0 | 3.0 | 0.00 | 0.00 | 0.00 | 78 | 1016.5 |
| 20260508043507 | 48 | 234 | 0.0 | 2.0 | 0.00 | 0.00 | 0.00 | 79 | 1016.5 |
| 20260508043008 | 48 | 234 | 0.0 | 3.0 | 0.00 | 0.00 | 0.00 | 79 | 1016.5 |
| 20260508042504 | 47 | 215 | 1.0 | 3.0 | 0.00 | 0.00 | 0.00 | 81 | 1016.6 |
| 20260508042003 | 47 | 223 | 1.0 | 3.0 | 0.00 | 0.00 | 0.00 | 81 | 1016.6 |
| 20260508041507 | 47 | 221 | 0.0 | 2.0 | 0.00 | 0.00 | 0.00 | 81 | 1016.7 |
| 20260508041003 | 47 | 229 | 1.0 | 2.0 | 0.00 | 0.00 | 0.00 | 81 | 1016.6 |
| 20260508040503 | 47 | 220 | 1.0 | 2.0 | 0.00 | 0.00 | 0.00 | 82 | 1016.5 |
| 20260508040024 | 47 | 220 | 1.0 | 2.0 | 0.00 | 0.00 | 0.00 | 82 | 1016.5 |
| 20260508035506 | 47 | 220 | 1.0 | 2.0 | 0.00 | 0.00 | 0.00 | 82 | 1016.5 |
| 20260508035006 | 47 | 220 | 1.0 | 3.0 | 0.00 | 0.00 | 0.00 | 82 | 1016.6 |
| 20260508034533 | 47 | 221 | 2.0 | 3.0 | 0.00 | 0.00 | 0.00 | 83 | 1016.6 |
| 20260508034009 | 47 | 221 | 2.0 | 3.0 | 0.00 | 0.00 | 0.00 | 83 | 1016.5 |
| 20260508033508 | 47 | 221 | 2.0 | 3.0 | 0.00 | 0.00 | 0.00 | 82 | 1016.5 |
| 20260508033022 | 47 | 222 | 2.0 | 3.0 | 0.00 | 0.00 | 0.00 | 82 | 1016.6 |
| 20260508032510 | 47 | 216 | 1.0 | 2.0 | 0.00 | 0.00 | 0.00 | 82 | 1016.4 |
| 20260508032012 | 47 | 225 | 1.0 | 2.0 | 0.00 | 0.00 | 0.00 | 82 | 1016.3 |
| 20260508031504 | 47 | 225 | 2.0 | 2.0 | 0.00 | 0.00 | 0.00 | 82 | 1016.4 |
| 20260508031002 | 47 | 228 | 1.0 | 2.0 | 0.00 | 0.00 | 0.00 | 81 | 1016.3 |
| 20260508030506 | 47 | 228 | 1.0 | 3.0 | 0.00 | 0.00 | 0.00 | 1016.3 | |
| 20260508030024 | 47 | 228 | 2.0 | 3.0 | 0.00 | 0.00 | 0.00 | 81 | 1016.3 |
| 20260508025506 | 47 | 230 | 2.0 | 3.0 | 0.00 | 0.00 | 0.00 | 81 | 1016.2 |
| 20260508025007 | 47 | 230 | 0.0 | 2.0 | 0.00 | 0.00 | 0.00 | 80 | 1016.1 |
| 20260508024535 | 47 | 230 | 0.0 | 2.0 | 0.00 | 0.00 | 0.00 | 80 | 1016.2 |
| 20260508024008 | 48 | 230 | 2.0 | 2.0 | 0.00 | 0.00 | 0.00 | 81 | 1016.3 |
| 20260508023508 | 48 | 230 | 1.0 | 3.0 | 0.00 | 0.00 | 0.00 | 81 | 1016.3 |
| 20260508023018 | 48 | 230 | 2.0 | 3.0 | 0.00 | 0.00 | 0.00 | 81 | 1016.2 |
| 20260508022511 | 48 | 227 | 2.0 | 5.0 | 0.00 | 0.00 | 0.00 | 81 | 1016.1 |
| 20260508022011 | 48 | 239 | 3.0 | 5.0 | 0.00 | 0.00 | 0.00 | 81 | 1016.1 |
| 20260508021524 | 48 | 229 | 3.0 | 4.0 | 0.00 | 0.00 | 0.00 | 79 | 1016.0 |
| 20260508021012 | 49 | 234 | 2.0 | 3.0 | 0.00 | 0.00 | 0.00 | 78 | 1015.9 |
| 20260508020510 | 49 | 232 | 2.0 | 3.0 | 0.00 | 0.00 | 0.00 | 77 | 1015.8 |
| 20260508020008 | 50 | 232 | 2.0 | 3.0 | 0.00 | 0.00 | 0.00 | 76 | 1015.7 |
| 20260508015503 | 51 | 231 | 2.0 | 3.0 | 0.00 | 0.00 | 0.00 | 75 | 1015.6 |
| 20260508015002 | 51 | 234 | 2.0 | 3.0 | 0.00 | 0.00 | 0.00 | 73 | 1015.7 |
| 20260508014512 | 52 | 232 | 2.0 | 3.0 | 0.00 | 0.00 | 0.00 | 72 | 1015.6 |
| 20260508014007 | 53 | 219 | 1.0 | 2.0 | 0.00 | 0.00 | 0.00 | 70 | 1015.5 |
| 20260508013508 | 53 | 219 | 2.0 | 2.0 | 0.00 | 0.00 | 0.00 | 66 | 1015.4 |
| 20260508013027 | 54 | 219 | 1.0 | 1.0 | 0.00 | 0.00 | 0.00 | 65 | 1015.4 |
| 20260508012512 | 54 | 219 | 0.0 | 1.0 | 0.00 | 0.00 | 0.00 | 64 | 1015.4 |
| 20260508012007 | 55 | 219 | 0.0 | 1.0 | 0.00 | 0.00 | 0.00 | 63 | 1015.4 |
| 20260508011529 | 56 | 219 | 0.0 | 2.0 | 0.00 | 0.00 | 0.00 | 62 | 1015.4 |
| 20260508011015 | 56 | 219 | 0.0 | 2.0 | 0.00 | 0.00 | 0.00 | 61 | 1015.3 |
| 20260508010507 | 57 | 219 | 0.0 | 2.0 | 0.00 | 0.00 | 0.00 | 59 | 1015.3 |
| 20260508010024 | 58 | 219 | 0.0 | 2.0 | 0.00 | 0.00 | 0.00 | 58 | 1015.3 |
| 20260508005509 | 58 | 219 | 0.0 | 2.0 | 0.00 | 0.00 | 0.00 | 58 | 1015.3 |
| 20260508005011 | 59 | 283 | 0.0 | 2.0 | 0.00 | 0.00 | 0.00 | 57 | 1015.4 |
| 20260508004531 | 60 | 283 | 0.0 | 2.0 | 0.00 | 0.00 | 0.00 | 56 | 1015.4 |
| 20260508004005 | 60 | 283 | 0.0 | 2.0 | 0.00 | 0.00 | 0.00 | 55 | 1015.4 |
| 20260508003503 | 61 | 283 | 0.0 | 2.0 | 0.00 | 0.00 | 0.00 | 54 | 1015.5 |
| 20260508003014 | 61 | 276 | 0.0 | 3.0 | 0.00 | 0.00 | 0.00 | 54 | 1015.5 |
| 20260508002507 | 61 | 276 | 0.0 | 3.0 | 0.00 | 0.00 | 0.00 | 55 | 1015.6 |
| 20260508002007 | 62 | 258 | 1.0 | 3.0 | 0.00 | 0.00 | 0.00 | 49 | 1015.6 |
| 20260508001531 | 62 | 241 | 1.0 | 3.0 | 0.00 | 0.00 | 0.00 | 48 | 1015.7 |
| 20260508001009 | 62 | 217 | 1.0 | 4.0 | 0.00 | 0.00 | 0.00 | 49 | 1015.7 |
| 20260508000511 | 63 | 268 | 1.0 | 4.0 | 0.00 | 0.00 | 0.00 | 49 | 1015.7 |
| 20260508000025 | 63 | 279 | 2.0 | 4.0 | 0.00 | 0.00 | 0.00 | 46 | 1015.7 |
| 20260507235509 | 63 | 252 | 1.0 | 3.0 | 0.00 | 0.00 | 0.00 | 47 | 1015.7 |
| 20260507235008 | 63 | 286 | 1.0 | 3.0 | 0.00 | 0.00 | 0.00 | 47 | 1015.7 |
| 20260507234528 | 63 | 237 | 0.0 | 4.0 | 0.00 | 0.00 | 0.00 | 47 | 1015.7 |
| 20260507234008 | 63 | 250 | 2.0 | 5.0 | 0.00 | 0.00 | 0.00 | 46 | 1015.7 |
| 20260507233517 | 64 | 284 | 2.0 | 5.0 | 0.00 | 0.00 | 0.00 | 45 | 1015.7 |
| 20260507233013 | 63 | 244 | 1.0 | 8.0 | 0.00 | 0.00 | 0.00 | 45 | 1015.8 |
| 20260507232505 | 63 | 287 | 2.0 | 8.0 | 0.00 | 0.00 | 0.00 | 47 | 1015.8 |
| 20260507232007 | 64 | 288 | 3.0 | 9.0 | 0.00 | 0.00 | 0.00 | 47 | 1015.8 |
| 20260507231518 | 64 | 292 | 3.0 | 9.0 | 0.00 | 0.00 | 0.00 | 46 | 1015.8 |
| 20260507231009 | 64 | 235 | 4.0 | 8.0 | 0.00 | 0.00 | 0.00 | 44 | 1015.7 |
| 20260507230508 | 63 | 289 | 3.0 | 9.0 | 0.00 | 0.00 | 0.00 | 46 | 1015.8 |
| 20260507230021 | 63 | 5 | 3.0 | 9.0 | 0.00 | 0.00 | 0.00 | 45 | 1015.7 |
| 20260507225508 | 63 | 279 | 2.0 | 10.0 | 0.00 | 0.00 | 0.00 | 45 | 1015.8 |
| 20260507225007 | 63 | 301 | 5.0 | 10.0 | 0.00 | 0.00 | 0.00 | 45 | 1015.9 |
| 20260507224527 | 64 | 275 | 6.0 | 10.0 | 0.00 | 0.00 | 0.00 | 45 | 1015.8 |
| 20260507224009 | 64 | 346 | 4.0 | 9.0 | 0.00 | 0.00 | 0.00 | 46 | 1015.8 |
| 20260507223512 | 64 | 274 | 4.0 | 9.0 | 0.00 | 0.00 | 0.00 | 45 | 1015.8 |
| 20260507223026 | 64 | 252 | 4.0 | 8.0 | 0.00 | 0.00 | 0.00 | 46 | 1015.8 |
| 20260507222506 | 64 | 280 | 3.0 | 11.0 | 0.00 | 0.00 | 0.00 | 46 | 1015.8 |
| 20260507222008 | 64 | 279 | 4.0 | 11.0 | 0.00 | 0.00 | 0.00 | 45 | 1015.8 |
| 20260507221518 | 64 | 322 | 3.0 | 8.0 | 0.00 | 0.00 | 0.00 | 45 | 1015.8 |
| 20260507221013 | 64 | 277 | 4.0 | 7.0 | 0.00 | 0.00 | 0.00 | 45 | 1015.8 |
| 20260507220514 | 64 | 330 | 4.0 | 8.0 | 0.00 | 0.00 | 0.00 | 45 | 1015.8 |
| 20260507220005 | 65 | 293 | 3.0 | 9.0 | 0.00 | 0.00 | 0.00 | 45 | 1015.8 |
| 20260507215505 | 64 | 235 | 5.0 | 9.0 | 0.00 | 0.00 | 0.00 | 44 | 1015.8 |
| 20260507215004 | 64 | 263 | 2.0 | 8.0 | 0.00 | 0.00 | 0.00 | 48 | 1015.9 |
| 20260507214506 | 64 | 307 | 3.0 | 7.0 | 0.00 | 0.00 | 0.00 | 44 | 1015.8 |
| 20260507214003 | 64 | 245 | 5.0 | 10.0 | 0.00 | 0.00 | 0.00 | 47 | 1015.8 |
| 20260507213505 | 64 | 242 | 6.0 | 11.0 | 0.00 | 0.00 | 0.00 | 44 | 1016.0 |
| 20260507213011 | 64 | 296 | 6.0 | 11.0 | 0.00 | 0.00 | 0.00 | 44 | 1015.8 |
| 20260507212505 | 64 | 296 | 8.0 | 11.0 | 0.00 | 0.00 | 0.00 | 44 | 1015.9 |
| 20260507212009 | 64 | 240 | 2.0 | 9.0 | 0.00 | 0.00 | 0.00 | 46 | 1015.9 |
| 20260507211514 | 63 | 303 | 2.0 | 11.0 | 0.00 | 0.00 | 0.00 | 43 | 1015.9 |
| 20260507211006 | 64 | 325 | 5.0 | 11.0 | 0.00 | 0.00 | 0.00 | 45 | 1016.0 |
| 20260507210507 | 64 | 246 | 5.0 | 11.0 | 0.00 | 0.00 | 0.00 | 46 | 1016.0 |
| 20260507210019 | 64 | 279 | 4.0 | 10.0 | 0.00 | 0.00 | 0.00 | 44 | 1016.1 |
| 20260507205508 | 64 | 310 | 2.0 | 10.0 | 0.00 | 0.00 | 0.00 | 46 | 1016.1 |
| 20260507205003 | 64 | 243 | 5.0 | 10.0 | 0.00 | 0.00 | 0.00 | 43 | 1016.1 |
| 20260507204505 | 64 | 32 | 2.0 | 11.0 | 0.00 | 0.00 | 0.00 | 43 | 1016.1 |
| 20260507204008 | 64 | 228 | 5.0 | 11.0 | 0.00 | 0.00 | 0.00 | 44 | 1016.3 |
| 20260507203504 | 63 | 292 | 1.0 | 15.0 | 0.00 | 0.00 | 0.00 | 43 | 1016.2 |
| 20260507203010 | 63 | 242 | 5.0 | 15.0 | 0.00 | 0.00 | 0.00 | 43 | 1016.4 |
| 20260507202503 | 63 | 325 | 4.0 | 8.0 | 0.00 | 0.00 | 0.00 | 45 | 1016.3 |
| 20260507202003 | 63 | 340 | 4.0 | 8.0 | 0.00 | 0.00 | 0.00 | 44 | 1016.5 |
| 20260507201511 | 63 | 278 | 2.0 | 11.0 | 0.00 | 0.00 | 0.00 | 43 | 1016.6 |
| 20260507201004 | 63 | 167 | 2.0 | 11.0 | 0.00 | 0.00 | 0.00 | 43 | 1016.6 |
| 20260507200510 | 63 | 286 | 6.0 | 11.0 | 0.00 | 0.00 | 0.00 | 46 | 1016.8 |
| 20260507200017 | 63 | 278 | 7.0 | 11.0 | 0.00 | 0.00 | 0.00 | 45 | 1016.7 |
| 20260507195507 | 63 | 148 | 1.0 | 10.0 | 0.00 | 0.00 | 0.00 | 49 | 1016.8 |
| 20260507195011 | 63 | 249 | 7.0 | 10.0 | 0.00 | 0.00 | 0.00 | 44 | 1016.9 |
| 20260507194527 | 63 | 239 | 6.0 | 11.0 | 0.00 | 0.00 | 0.00 | 44 | 1017.0 |
| 20260507194012 | 63 | 217 | 7.0 | 11.0 | 0.00 | 0.00 | 0.00 | 44 | 1017.1 |
| 20260507193504 | 63 | 259 | 2.0 | 10.0 | 0.00 | 0.00 | 0.00 | 50 | 1017.0 |
| 20260507193003 | 63 | 239 | 3.0 | 10.0 | 0.00 | 0.00 | 0.00 | 44 | 1017.0 |
| 20260507192509 | 62 | 192 | 6.0 | 12.0 | 0.00 | 0.00 | 0.00 | 45 | 1017.1 |
| 20260507192003 | 62 | 265 | 5.0 | 12.0 | 0.00 | 0.00 | 0.00 | 45 | 1017.0 |
| 20260507191515 | 62 | 247 | 7.0 | 12.0 | 0.00 | 0.00 | 0.00 | 44 | 1017.1 |
| 20260507191003 | 62 | 215 | 3.0 | 9.0 | 0.00 | 0.00 | 0.00 | 50 | 1017.1 |
| 20260507190506 | 61 | 314 | 3.0 | 12.0 | 0.00 | 0.00 | 0.00 | 46 | 1017.0 |
| 20260507190016 | 62 | 242 | 3.0 | 12.0 | 0.00 | 0.00 | 0.00 | 45 | 1017.3 |
| 20260507185507 | 62 | 273 | 4.0 | 10.0 | 0.00 | 0.00 | 0.00 | 47 | 1017.4 |
| 20260507185007 | 62 | 304 | 3.0 | 10.0 | 0.00 | 0.00 | 0.00 | 42 | 1017.4 |
| 20260507184523 | 62 | 253 | 4.0 | 10.0 | 0.00 | 0.00 | 0.00 | 47 | 1017.5 |
| 20260507184007 | 61 | 234 | 3.0 | 10.0 | 0.00 | 0.00 | 0.00 | 45 | 1017.5 |
| 20260507183507 | 61 | 192 | 4.0 | 12.0 | 0.00 | 0.00 | 0.00 | 46 | 1017.5 |
| 20260507183022 | 60 | 223 | 5.0 | 12.0 | 0.00 | 0.00 | 0.00 | 46 | 1017.6 |
| 20260507182509 | 60 | 5 | 4.0 | 12.0 | 0.00 | 0.00 | 0.00 | 44 | 1017.6 |
| 20260507182004 | 60 | 284 | 6.0 | 12.0 | 0.00 | 0.00 | 0.00 | 48 | 1017.8 |
| 20260507181510 | 60 | 297 | 6.0 | 10.0 | 0.00 | 0.00 | 0.00 | 51 | 1017.9 |
| 20260507181006 | 60 | 276 | 4.0 | 10.0 | 0.00 | 0.00 | 0.00 | 45 | 1017.9 |
| 20260507180507 | 60 | 280 | 4.0 | 12.0 | 0.00 | 0.00 | 0.00 | 50 | 1018.0 |
| 20260507180017 | 60 | 316 | 4.0 | 12.0 | 0.00 | 0.00 | 0.00 | 48 | 1018.0 |
| 20260507175503 | 60 | 175 | 3.0 | 8.0 | 0.00 | 0.00 | 0.00 | 48 | 1018.1 |
| 20260507175006 | 59 | 344 | 2.0 | 7.0 | 0.00 | 0.00 | 0.00 | 44 | 1018.2 |
| 20260507174528 | 59 | 27 | 1.0 | 8.0 | 0.00 | 0.00 | 0.00 | 48 | 1018.3 |
| 20260507174010 | 59 | 352 | 4.0 | 11.0 | 0.00 | 0.00 | 0.00 | 43 | 1018.3 |
| 20260507173506 | 60 | 267 | 6.0 | 11.0 | 0.00 | 0.00 | 0.00 | 42 | 1018.5 |
| 20260507173046 | 60 | 276 | 5.0 | 11.0 | 0.00 | 0.00 | 0.00 | 45 | 1018.5 |
| 20260507172508 | 60 | 233 | 5.0 | 11.0 | 0.00 | 0.00 | 0.00 | 46 | 1018.4 |
| 20260507172010 | 60 | 224 | 4.0 | 11.0 | 0.00 | 0.00 | 0.00 | 46 | 1018.5 |
| 20260507171528 | 60 | 292 | 3.0 | 7.0 | 0.00 | 0.00 | 0.00 | 48 | 1018.6 |
| 20260507171004 | 60 | 189 | 4.0 | 7.0 | 0.00 | 0.00 | 0.00 | 52 | 1018.6 |
| 20260507170504 | 59 | 74 | 3.0 | 0.0 | 0.00 | 0.00 | 0.00 | 49 | 1018.7 |
| 20260507170036 | 58 | 3.0 | 6.0 | 0.00 | 0.00 | 0.00 | 48 | 1018.8 | |
| 20260507165514 | 58 | 209 | 3.0 | 8.0 | 0.00 | 0.00 | 0.00 | 50 | 1018.9 |
| 20260507165007 | 58 | 330 | 4.0 | 10.0 | 0.00 | 0.00 | 0.00 | 49 | 1018.9 |
| 20260507164518 | 58 | 281 | 4.0 | 10.0 | 0.00 | 0.00 | 0.00 | 46 | 1019.1 |
| 20260507164006 | 58 | 232 | 6.0 | 10.0 | 0.00 | 0.00 | 0.00 | 44 | 1019.1 |
| 20260507163507 | 58 | 250 | 1.0 | 9.0 | 0.00 | 0.00 | 0.00 | 50 | 1019.1 |
| 20260507163020 | 58 | 314 | 6.0 | 9.0 | 0.00 | 0.00 | 0.00 | 47 | 1019.2 |
| 20260507162509 | 58 | 328 | 2.0 | 7.0 | 0.00 | 0.00 | 0.00 | 46 | 1019.3 |
| 20260507162010 | 59 | 251 | 2.0 | 7.0 | 0.00 | 0.00 | 0.00 | 45 | 1019.3 |
| 20260507161525 | 58 | 200 | 0.0 | 6.0 | 0.00 | 0.00 | 0.00 | 51 | 1019.3 |
| 20260507161008 | 58 | 223 | 0.0 | 6.0 | 0.00 | 0.00 | 0.00 | 52 | 1019.4 |
| 20260507160507 | 58 | 222 | 2.0 | 6.0 | 0.00 | 0.00 | 0.00 | 53 | 1019.4 |
| 20260507160028 | 58 | 250 | 2.0 | 6.0 | 0.00 | 0.00 | 0.00 | 54 | 1019.4 |
| 20260507155508 | 58 | 196 | 2.0 | 6.0 | 0.00 | 0.00 | 0.00 | 52 | 1019.4 |
| 20260507155009 | 57 | 97 | 2.0 | 6.0 | 0.00 | 0.00 | 0.00 | 52 | 1019.3 |
| 20260507154527 | 57 | 218 | 1.0 | 5.0 | 0.00 | 0.00 | 0.00 | 54 | 1019.3 |
| 20260507154009 | 56 | 70 | 1.0 | 7.0 | 0.00 | 0.00 | 0.00 | 51 | 1019.4 |
| 20260507153505 | 56 | 56 | 1.0 | 7.0 | 0.00 | 0.00 | 0.00 | 53 | 1019.4 |
| 20260507153018 | 56 | 148 | 2.0 | 7.0 | 0.00 | 0.00 | 0.00 | 57 | 1019.3 |
| 20260507152508 | 55 | 73 | 2.0 | 6.0 | 0.00 | 0.00 | 0.00 | 55 | 1019.3 |
| 20260507152013 | 55 | 33 | 3.0 | 5.0 | 0.00 | 0.00 | 0.00 | 50 | 1019.4 |
| 20260507151522 | 55 | 231 | 1.0 | 4.0 | 0.00 | 0.00 | 0.00 | 52 | 1019.4 |
| 20260507151008 | 54 | 67 | 0.0 | 6.0 | 0.00 | 0.00 | 0.00 | 48 | 1019.5 |
| 20260507150513 | 54 | 92 | 3.0 | 6.0 | 0.00 | 0.00 | 0.00 | 51 | 1019.5 |
| 20260507150035 | 54 | 71 | 3.0 | 6.0 | 0.00 | 0.00 | 0.00 | 49 | 1019.5 |
| 20260507145510 | 54 | 35 | 3.0 | 7.0 | 0.00 | 0.00 | 0.00 | 49 | 1019.5 |
| 20260507145018 | 54 | 54 | 4.0 | 7.0 | 0.00 | 0.00 | 0.00 | 52 | 1019.5 |
| 20260507144528 | 54 | 158 | 2.0 | 6.0 | 0.00 | 0.00 | 0.00 | 51 | 1019.6 |
| 20260507144006 | 54 | 98 | 2.0 | 5.0 | 0.00 | 0.00 | 0.00 | 52 | 1019.5 |
| 20260507143512 | 53 | 79 | 1.0 | 6.0 | 0.00 | 0.00 | 0.00 | 51 | 1019.5 |
| 20260507143016 | 53 | 77 | 3.0 | 6.0 | 0.00 | 0.00 | 0.00 | 51 | 1019.5 |
| 20260507142506 | 53 | 108 | 3.0 | 6.0 | 0.00 | 0.00 | 0.00 | 51 | 1019.5 |
| 20260507142013 | 53 | 156 | 1.0 | 5.0 | 0.00 | 0.00 | 0.00 | 56 | 1019.4 |
| 20260507141521 | 53 | 107 | 2.0 | 6.0 | 0.00 | 0.00 | 0.00 | 52 | 1019.5 |
| 20260507141008 | 53 | 86 | 3.0 | 6.0 | 0.00 | 0.00 | 0.00 | 53 | 1019.6 |
| 20260507140509 | 53 | 70 | 2.0 | 4.0 | 0.00 | 0.00 | 0.00 | 52 | 1019.6 |
| 20260507140025 | 52 | 71 | 1.0 | 4.0 | 0.00 | 0.00 | 0.00 | 54 | 1019.7 |
| 20260507135509 | 52 | 117 | 1.0 | 4.0 | 0.00 | 0.00 | 0.00 | 54 | 1019.6 |
| 20260507135009 | 52 | 81 | 1.0 | 4.0 | 0.00 | 0.00 | 0.00 | 55 | 1019.7 |
| 20260507134528 | 52 | 99 | 2.0 | 4.0 | 0.00 | 0.00 | 0.00 | 57 | 1019.7 |
| 20260507134011 | 51 | 55 | 1.0 | 3.0 | 0.00 | 0.00 | 0.00 | 60 | 1019.7 |
| 20260507133509 | 51 | 82 | 1.0 | 3.0 | 0.00 | 0.00 | 0.00 | 58 | 1019.8 |
| 20260507133038 | 51 | 94 | 1.0 | 3.0 | 0.00 | 0.00 | 0.00 | 59 | 1019.7 |
| 20260507132507 | 50 | 90 | 1.0 | 3.0 | 0.00 | 0.00 | 0.00 | 61 | 1019.7 |
| 20260507132009 | 49 | 88 | 1.0 | 3.0 | 0.00 | 0.00 | 0.00 | 60 | 1019.7 |
| 20260507131519 | 49 | 84 | 1.0 | 3.0 | 0.00 | 0.00 | 0.00 | 63 | 1019.6 |
| 20260507131002 | 47 | 71 | 1.0 | 2.0 | 0.00 | 0.00 | 0.00 | 70 | 1019.5 |
| 20260507130503 | 46 | 87 | 1.0 | 2.0 | 0.00 | 0.00 | 0.00 | 70 | 1019.4 |
| 20260507130004 | 45 | 137 | 0.0 | 2.0 | 0.00 | 0.00 | 0.00 | 75 | 1019.3 |
| 20260507125503 | 43 | 182 | 0.0 | 2.0 | 0.00 | 0.00 | 0.00 | 77 | 1019.2 |
| 20260507125002 | 42 | 182 | 0.0 | 2.0 | 0.00 | 0.00 | 0.00 | 1019.3 | |
| 20260507124506 | 41 | 182 | 0.0 | 2.0 | 0.00 | 0.00 | 0.00 | 1019.2 | |
| 20260507124003 | 40 | 182 | 0.0 | 2.0 | 0.00 | 0.00 | 0.00 | 89 | 1019.2 |
| 20260507123506 | 40 | 231 | 1.0 | 3.0 | 0.00 | 0.00 | 0.00 | 89 | 1019.2 |
| 20260507123014 | 39 | 231 | 2.0 | 3.0 | 0.00 | 0.00 | 0.00 | 89 | 1019.3 |
| 20260507122503 | 39 | 231 | 2.0 | 3.0 | 0.00 | 0.00 | 0.00 | 89 | 1019.2 |
| 20260507122006 | 38 | 231 | 2.0 | 2.0 | 0.00 | 0.00 | 0.00 | 89 | 1019.2 |
| 20260507121517 | 38 | 231 | 2.0 | 2.0 | 0.00 | 0.00 | 0.00 | 89 | 1019.2 |
| 20260507121008 | 37 | 231 | 2.0 | 2.0 | 0.00 | 0.00 | 0.00 | 89 | 1019.2 |
| 20260507120509 | 37 | 231 | 2.0 | 2.0 | 0.00 | 0.00 | 0.00 | 89 | 1019.2 |
| 20260507120021 | 37 | 231 | 2.0 | 3.0 | 0.00 | 0.00 | 0.00 | 89 | 1019.0 |
| 20260507115503 | 37 | 231 | 1.0 | 3.0 | 0.00 | 0.00 | 0.00 | 88 | 1018.9 |
| 20260507115003 | 37 | 231 | 3.0 | 3.0 | 0.00 | 0.00 | 0.00 | 88 | 1018.7 |
| 20260507114505 | 37 | 227 | 2.0 | 3.0 | 0.00 | 0.00 | 0.00 | 87 | 1018.6 |
| 20260507114003 | 37 | 227 | 3.0 | 3.0 | 0.00 | 0.00 | 0.00 | 87 | 1018.5 |
| 20260507113502 | 37 | 227 | 2.0 | 2.0 | 0.00 | 0.00 | 0.00 | 87 | 1018.5 |
| 20260507113012 | 37 | 227 | 1.0 | 2.0 | 0.00 | 0.00 | 0.00 | 86 | 1018.6 |
| 20260507112503 | 37 | 227 | 1.0 | 2.0 | 0.00 | 0.00 | 0.00 | 87 | 1018.6 |
| 20260507112003 | 37 | 227 | 1.0 | 3.0 | 0.00 | 0.00 | 0.00 | 87 | 1018.7 |
| 20260507111514 | 37 | 227 | 2.0 | 3.0 | 0.00 | 0.00 | 0.00 | 86 | 1018.6 |
| 20260507111004 | 37 | 227 | 1.0 | 3.0 | 0.00 | 0.00 | 0.00 | 86 | 1018.6 |
| 20260507110507 | 38 | 227 | 2.0 | 4.0 | 0.00 | 0.00 | 0.00 | 85 | 1018.4 |
| 20260507110022 | 38 | 225 | 2.0 | 4.0 | 0.00 | 0.00 | 0.00 | 85 | 1018.6 |
| 20260507105510 | 38 | 224 | 3.0 | 3.0 | 0.00 | 0.00 | 0.00 | 84 | 1018.6 |
| 20260507105007 | 38 | 227 | 2.0 | 2.0 | 0.00 | 0.00 | 0.00 | 83 | 1018.6 |
| 20260507104523 | 39 | 240 | 2.0 | 3.0 | 0.00 | 0.00 | 0.00 | 82 | 1018.6 |
| 20260507104005 | 39 | 234 | 2.0 | 3.0 | 0.00 | 0.00 | 0.00 | 82 | 1018.5 |
| 20260507103503 | 40 | 228 | 2.0 | 2.0 | 0.00 | 0.00 | 0.00 | 81 | 1018.5 |
| 20260507103007 | 40 | 360 | 0.0 | 2.0 | 0.00 | 0.00 | 0.00 | 78 | 1018.5 |
| 20260507102504 | 40 | 360 | 0.0 | 2.0 | 0.00 | 0.00 | 0.00 | 77 | 1018.6 |
| 20260507102006 | 41 | 360 | 0.0 | 1.0 | 0.00 | 0.00 | 0.00 | 76 | 1018.7 |
| 20260507101512 | 41 | 360 | 0.0 | 2.0 | 0.00 | 0.00 | 0.00 | 76 | 1018.6 |
| 20260507101002 | 42 | 323 | 0.0 | 2.0 | 0.00 | 0.00 | 0.00 | 75 | 1018.7 |
| 20260507100509 | 42 | 323 | 0.0 | 3.0 | 0.00 | 0.00 | 0.00 | 74 | 1018.6 |
| 20260507100021 | 42 | 323 | 1.0 | 3.0 | 0.00 | 0.00 | 0.00 | 74 | 1018.6 |
| 20260507095511 | 43 | 314 | 1.0 | 3.0 | 0.00 | 0.00 | 0.00 | 72 | 1018.6 |
| 20260507095007 | 43 | 313 | 0.0 | 3.0 | 0.00 | 0.00 | 0.00 | 73 | 1018.5 |
| 20260507094523 | 43 | 340 | 0.0 | 4.0 | 0.00 | 0.00 | 0.00 | 71 | 1018.4 |
| 20260507094010 | 43 | 335 | 1.0 | 4.0 | 0.00 | 0.00 | 0.00 | 70 | 1018.4 |
| 20260507093508 | 43 | 328 | 2.0 | 4.0 | 0.00 | 0.00 | 0.00 | 70 | 1018.5 |
| 20260507093026 | 43 | 325 | 2.0 | 4.0 | 0.00 | 0.00 | 0.00 | 70 | 1018.4 |
| 20260507092509 | 43 | 346 | 2.0 | 6.0 | 0.00 | 0.00 | 0.00 | 71 | 1018.2 |
| 20260507092003 | 43 | 348 | 3.0 | 6.0 | 0.00 | 0.00 | 0.00 | 71 | 1018.2 |
| 20260507091513 | 43 | 329 | 2.0 | 3.0 | 0.00 | 0.00 | 0.00 | 71 | 1018.2 |
| 20260507091003 | 43 | 360 | 1.0 | 4.0 | 0.00 | 0.00 | 0.00 | 72 | 1018.1 |
| 20260507090502 | 43 | 346 | 2.0 | 4.0 | 0.00 | 0.00 | 0.00 | 71 | 1018.2 |
| 20260507090017 | 43 | 309 | 2.0 | 4.0 | 0.00 | 0.00 | 0.00 | 71 | 1018.3 |
| 20260507085506 | 43 | 312 | 1.0 | 4.0 | 0.00 | 0.00 | 0.00 | 72 | 1018.1 |
| 20260507085007 | 43 | 350 | 1.0 | 4.0 | 0.00 | 0.00 | 0.00 | 73 | 1018.0 |
| 20260507084520 | 43 | 342 | 1.0 | 3.0 | 0.00 | 0.00 | 0.00 | 74 | 1017.9 |
| 20260507084008 | 43 | 346 | 1.0 | 3.0 | 0.00 | 0.00 | 0.00 | 73 | 1017.9 |
| 20260507083508 | 43 | 5 | 1.0 | 4.0 | 0.00 | 0.00 | 0.00 | 74 | 1018.0 |
| 20260507083024 | 43 | 350 | 1.0 | 5.0 | 0.00 | 0.00 | 0.00 | 73 | 1017.9 |
| 20260507082507 | 43 | 333 | 2.0 | 5.0 | 0.00 | 0.00 | 0.00 | 74 | 1018.0 |
| 20260507082012 | 43 | 347 | 3.0 | 5.0 | 0.00 | 0.00 | 0.00 | 75 | 1018.0 |
| 20260507081536 | 43 | 340 | 1.0 | 3.0 | 0.00 | 0.00 | 0.00 | 75 | 1018.0 |
| 20260507081011 | 43 | 316 | 2.0 | 3.0 | 0.00 | 0.00 | 0.00 | 75 | 1018.1 |
| 20260507080502 | 43 | 331 | 1.0 | 5.0 | 0.00 | 0.00 | 0.00 | 75 | 1018.0 |
| 20260507080013 | 44 | 33 | 2.0 | 5.0 | 0.00 | 0.00 | 0.00 | 74 | 1018.1 |
| 20260507075503 | 44 | 327 | 2.0 | 6.0 | 0.00 | 0.00 | 0.00 | 74 | 1018.3 |
| 20260507075006 | 44 | 331 | 3.0 | 6.0 | 0.00 | 0.00 | 0.00 | 76 | 1018.4 |
| 20260507074519 | 44 | 336 | 2.0 | 6.0 | 0.00 | 0.00 | 0.00 | 76 | 1018.3 |
| 20260507074004 | 44 | 336 | 2.0 | 4.0 | 0.00 | 0.00 | 0.00 | 76 | 1018.3 |
| 20260507073506 | 44 | 329 | 2.0 | 8.0 | 0.00 | 0.00 | 0.00 | 76 | 1018.3 |
| 20260507073020 | 44 | 331 | 3.0 | 8.0 | 0.00 | 0.00 | 0.00 | 76 | 1018.3 |
| 20260507072510 | 44 | 346 | 2.0 | 6.0 | 0.00 | 0.00 | 0.00 | 77 | 1018.3 |
| 20260507072010 | 44 | 324 | 2.0 | 4.0 | 0.00 | 0.00 | 0.00 | 78 | 1018.4 |
| 20260507071525 | 44 | 340 | 2.0 | 4.0 | 0.00 | 0.00 | 0.00 | 78 | 1018.4 |
| 20260507071006 | 44 | 309 | 2.0 | 4.0 | 0.00 | 0.00 | 0.00 | 79 | 1018.4 |
| 20260507070512 | 44 | 309 | 2.0 | 4.0 | 0.00 | 0.01 | 0.00 | 79 | 1018.4 |
| 20260507070040 | 44 | 335 | 1.0 | 3.0 | 0.00 | 0.01 | 0.00 | 79 | 1018.4 |